[[{"header":{"parameterUnit":"m.s-1","parameterCategory":1,"la1":30.2991,"la2":30.254,"lo1":-89.0895,"lo2":-89.0444,"dy":0.0017,"dx":0.0017,"nx":28,"ny":28,"refTime":"2026-01-10T09:00:00:Z","depth":0,"parameterNumber":2,"parameterNumberName":"U-component_of_WINDS"},"data":[0,0,0,0,0,0,0,0,0,0,0,0,0,0,0,0,0,0,0,0,0,0,0,0,0,0,0,0,0,0,0,0,0,0,0,0,0,0,0,0,0,0,0,0,0,0,0,0,0,0,0,0,0,0,0,0,0,0,1.6322,1.6322,0,1.6356,1.6356,1.6357,1.6347,1.6347,1.6346,1.6345,1.6378,1.638,1.6381,0,0,0,0,0,0,0,0,0,0,0,0,0,1.6249,1.625,1.6322,1.6322,1.6323,1.6356,1.6356,1.6357,1.6347,1.6347,1.6346,1.6345,1.6378,1.638,1.6381,0,0,0,0,0,0,0,0,0,0,0,0,0,1.6282,1.6251,1.6322,1.6322,1.6323,1.6356,1.6356,1.6357,1.6348,1.6347,1.6346,1.6345,1.6377,1.6379,1.6382,1.6416,0,0,1.6389,1.639,0,0,0,0,0,0,0,0,1.628,1.6284,1.6322,1.6322,1.6323,1.6346,1.6343,1.6377,1.6348,1.6338,1.6345,1.6344,1.6368,1.6371,1.638,1.6418,1.6419,1.6389,1.639,1.6391,1.6392,0,0,0,0,0,0,0,1.6277,1.6283,1.6335,1.6322,1.6323,1.6321,1.6324,1.6349,1.6358,1.6339,1.6338,1.6342,1.6368,1.6378,1.6381,1.642,1.6389,1.6391,1.6392,1.6393,1.6489,1.649,0,0,0,0,0,0,1.6275,1.6281,1.6334,1.6336,1.6298,1.6323,1.6327,1.634,1.6358,1.636,1.6343,1.6342,1.6374,1.6378,1.6382,1.6424,1.6391,1.6393,1.6395,1.6488,1.649,1.6491,0,0,0,0,0,0,1.6273,1.628,1.6333,1.6309,1.6315,1.6325,1.634,1.6341,1.635,1.6362,1.6363,1.6351,1.6374,1.6379,1.6408,1.6425,1.6394,1.6396,1.6487,1.6489,1.649,1.6509,0,0,0,0,0,0,1.6271,1.6279,1.6292,1.6309,1.6316,1.6359,1.6341,1.6342,1.6354,1.6353,1.6369,1.6371,1.6373,1.6405,1.6411,1.6428,1.6398,1.6485,1.6488,1.649,1.6507,1.6511,1.6515,0,0,0,0,0,1.6269,1.6295,1.6293,1.6299,1.6333,1.636,1.6364,1.6367,1.6356,1.6369,1.6377,1.637,1.6423,1.6408,1.6414,1.6433,1.6484,1.6487,1.649,1.6505,1.6511,1.6515,0,0,0,0,0,0,1.6279,1.6298,1.6295,1.6328,1.6343,1.6358,1.6375,1.6372,1.6389,1.6387,1.6389,1.6393,1.6424,1.6431,1.6414,1.6468,1.6452,1.6456,1.6462,1.6467,1.6471,1.6468,1.64,0,0,0,0,0,1.6286,1.6306,1.6321,1.6349,1.6356,1.6365,1.6376,1.6377,1.6392,1.6398,1.6408,1.6422,1.6442,1.6455,1.6474,1.6509,1.6512,1.6524,1.6528,1.6532,1.6535,1.6555,1.6561,1.65,1.65,1.65,0,0,1.6299,1.6311,1.6324,1.6351,1.6363,1.6384,1.637,1.6392,1.6408,1.6401,1.643,1.6438,1.6455,1.6487,1.6502,1.6495,1.6553,1.6535,1.6538,1.6539,1.6559,1.6565,1.657,1.6502,1.6501,1.6501,0,0,1.6333,1.6345,1.637,1.6382,1.64,1.6406,1.6412,1.6429,1.6434,1.6463,1.6459,1.6478,1.6512,1.6524,1.6535,1.6577,1.6572,1.6583,1.6604,1.6624,1.6629,1.6633,1.6649,1.6654,1.6587,1.6587,1.6587,0,1.6347,1.6379,1.6383,1.6407,1.6419,1.6415,1.6441,1.6453,1.6476,1.6485,1.6476,1.652,1.653,1.6567,1.6577,1.6586,1.6593,1.6581,1.6628,1.6632,1.6636,1.6651,1.6657,1.6588,1.6588,1.6588,1.6588,0,1.6396,1.6418,1.6436,1.646,1.6475,1.6499,1.6507,1.6521,1.6522,1.6529,1.6559,1.6573,1.6595,1.6603,1.6603,1.664,1.6635,1.6627,1.6611,1.6643,1.6658,1.6663,1.659,1.6589,1.6589,1.6589,0,0,1.6436,1.6463,1.647,1.6481,1.6502,1.652,1.6545,1.6567,1.658,1.6597,1.6618,1.6648,1.6642,1.6654,1.6655,1.6673,1.6707,1.6663,1.6663,1.6671,1.675,1.6756,1.6762,1.6704,1.6705,1.6706,1.6748,0,1.6473,1.6517,1.6523,1.6562,1.6584,1.6582,1.6604,1.6619,1.6627,1.6646,1.6654,1.6676,1.6665,1.6673,1.669,1.6699,1.6723,1.6696,1.6724,1.6725,1.672,1.6769,1.6775,1.6814,1.6754,1.6755,1.6756,0,1.6521,1.6541,1.6583,1.6603,1.6612,1.6632,1.6654,1.6673,1.669,1.6695,1.671,1.671,1.6736,1.672,1.6756,1.6738,1.675,1.6757,1.6758,1.6761,1.6742,1.6773,1.6827,1.6833,1.6764,1.6763,1.6763,0,1.6547,1.6584,1.6615,1.6625,1.6648,1.6662,1.6673,1.669,1.6704,1.6723,1.6732,1.6754,1.6766,1.6783,1.6789,1.6777,1.6826,1.681,1.6831,1.6831,1.6841,1.684,1.6897,1.6849,1.6848,1.6848,1.6848,0,1.6588,1.6614,1.6627,1.6646,1.6676,1.6682,1.6711,1.672,1.6736,1.6757,1.6756,1.6776,1.6783,1.6803,1.6808,1.6839,1.6844,1.6848,1.6849,1.6848,1.6848,1.6856,1.6853,1.685,1.685,1.6849,1.6849,0,1.6622,1.6632,1.6665,1.6685,1.6691,1.6712,1.673,1.6748,1.6756,1.6783,1.6789,1.6802,1.6827,1.6835,1.6864,1.6867,1.6903,1.6901,1.6897,1.6897,1.6918,1.6916,1.6982,1.6992,1.6937,1.6937,1.6938,0,1.6647,1.6667,1.669,1.6705,1.6716,1.6739,1.6754,1.6761,1.6777,1.68,1.6816,1.6841,1.6861,1.6901,1.6912,1.6935,1.6934,1.6956,1.6938,1.6937,1.6935,1.6934,1.6936,1.6959,1.696,1.696,1.6961,0,1.6691,1.6695,1.6717,1.6741,1.6759,1.6778,1.6796,1.6808,1.6818,1.6836,1.6862,1.6878,1.6909,1.6934,1.6958,1.6968,1.6967,1.6967,1.6973,1.6972,1.6969,1.6971,1.6907,1.6965,1.6964,1.6964,1.6964,1.6964,1.6721,1.674,1.676,1.6784,1.68,1.6817,1.6836,1.6848,1.687,1.6896,1.6899,1.6927,1.6946,1.6978,1.6991,1.7013,1.7007,1.7015,1.7017,1.7019,1.7021,1.6966,1.7017,1.7017,1.7017,1.7017,1.7017,0,1.6766,1.6779,1.6802,1.6828,1.6848,1.6846,1.6867,1.6883,1.6908,1.6927,1.6947,1.6978,1.7003,1.7017,1.7042,1.7057,1.7057,1.7063,1.7062,1.7065,1.7025,1.7018,1.7063,1.7063,1.7063,1.7063,1.7063,1.7063,1.6791,1.6823,1.683,1.687,1.6883,1.6911,1.6923,1.694,1.6955,1.6989,1.701,1.702,1.7037,1.7064,1.7087,1.709,1.7099,1.7107,1.711,1.7072,1.7067,1.7063,1.7056,1.7109,1.7109,1.7148,1.7148,1.7148]},{"header":{"parameterUnit":"m.s-1","parameterCategory":1,"la1":30.2991,"la2":30.254,"lo1":-89.0895,"lo2":-89.0444,"dy":0.0017,"dx":0.0017,"nx":28,"ny":28,"refTime":"2026-01-10T09:00:00:Z","depth":0,"parameterNumber":3,"parameterNumberName":"V-component_of_WINDS"},"data":[0,0,0,0,0,0,0,0,0,0,0,0,0,0,0,0,0,0,0,0,0,0,0,0,0,0,0,0,0,0,0,0,0,0,0,0,0,0,0,0,0,0,0,0,0,0,0,0,0,0,0,0,0,0,0,0,0,0,-6.4068,-6.4069,0,-6.4156,-6.4157,-6.4158,-6.4129,-6.4127,-6.4125,-6.4123,-6.4209,-6.4212,-6.4216,0,0,0,0,0,0,0,0,0,0,0,0,0,-6.3872,-6.3876,-6.4068,-6.4069,-6.407,-6.4156,-6.4158,-6.4159,-6.4129,-6.4127,-6.4125,-6.4123,-6.4207,-6.4212,-6.4217,0,0,0,0,0,0,0,0,0,0,0,0,0,-6.3958,-6.3877,-6.4068,-6.4066,-6.4067,-6.4156,-6.4158,-6.4159,-6.413,-6.4127,-6.4124,-6.4121,-6.4206,-6.4212,-6.4218,-6.4312,0,0,-6.4236,-6.4239,0,0,0,0,0,0,0,0,-6.3953,-6.3965,-6.4065,-6.4067,-6.4067,-6.4129,-6.412,-6.421,-6.4131,-6.4106,-6.4123,-6.412,-6.4184,-6.4192,-6.4214,-6.4316,-6.432,-6.4237,-6.424,-6.4243,-6.4245,0,0,0,0,0,0,0,-6.3947,-6.3961,-6.4103,-6.4067,-6.4068,-6.406,-6.4069,-6.4137,-6.416,-6.4108,-6.4106,-6.4117,-6.4184,-6.4209,-6.4216,-6.4321,-6.4236,-6.4242,-6.4246,-6.4248,-6.4508,-6.4511,0,0,0,0,0,0,-6.3941,-6.3957,-6.41,-6.4106,-6.4002,-6.4066,-6.4076,-6.4112,-6.4159,-6.4163,-6.4119,-6.4115,-6.42,-6.4209,-6.4219,-6.4335,-6.4243,-6.4248,-6.4252,-6.4505,-6.4509,-6.4512,0,0,0,0,0,0,-6.3937,-6.3954,-6.4097,-6.4031,-6.4048,-6.4073,-6.4113,-6.4115,-6.414,-6.4168,-6.4171,-6.414,-6.4198,-6.421,-6.429,-6.4337,-6.4251,-6.4257,-6.4501,-6.4506,-6.451,-6.4565,0,0,0,0,0,0,-6.3932,-6.3953,-6.3989,-6.4032,-6.4052,-6.4167,-6.4116,-6.4119,-6.4151,-6.4146,-6.4188,-6.4192,-6.4196,-6.4281,-6.4296,-6.4344,-6.4261,-6.4497,-6.4503,-6.4509,-6.4559,-6.4571,-6.4582,0,0,0,0,0,-6.3925,-6.4,-6.3991,-6.4009,-6.4098,-6.417,-6.4181,-6.4186,-6.4155,-6.4192,-6.421,-6.4191,-6.433,-6.429,-6.4306,-6.4356,-6.4494,-6.4501,-6.4508,-6.4554,-6.4569,-6.4582,0,0,0,0,0,0,-6.3959,-6.4005,-6.3996,-6.4087,-6.4125,-6.4165,-6.4211,-6.4201,-6.4246,-6.424,-6.4242,-6.4252,-6.4335,-6.4353,-6.4308,-6.4452,-6.4407,-6.4418,-6.4436,-6.4451,-6.4462,-6.4455,-6.4267,0,0,0,0,0,-6.3978,-6.4033,-6.407,-6.4146,-6.4166,-6.4186,-6.4217,-6.4218,-6.4256,-6.4271,-6.4296,-6.4333,-6.4385,-6.4419,-6.4468,-6.4563,-6.4572,-6.4606,-6.4617,-6.4626,-6.4635,-6.4688,-6.4704,-6.4536,-6.4536,-6.4536,0,0,-6.4015,-6.4048,-6.4082,-6.4154,-6.4184,-6.4241,-6.4199,-6.426,-6.4303,-6.428,-6.4358,-6.4377,-6.4419,-6.4507,-6.4547,-6.4525,-6.4684,-6.4635,-6.4642,-6.4646,-6.4698,-6.4714,-6.4728,-6.4541,-6.454,-6.454,0,0,-6.4114,-6.4144,-6.4212,-6.4244,-6.429,-6.4303,-6.432,-6.4362,-6.4375,-6.4454,-6.4439,-6.4489,-6.4579,-6.461,-6.4637,-6.4753,-6.4738,-6.4769,-6.4827,-6.4879,-6.4892,-6.4904,-6.4946,-6.4961,-6.4778,-6.4778,-6.4778,0,-6.4154,-6.4241,-6.4248,-6.4312,-6.4345,-6.4331,-6.44,-6.443,-6.4489,-6.4512,-6.4488,-6.4602,-6.4629,-6.4725,-6.4754,-6.4777,-6.4796,-6.4763,-6.489,-6.4902,-6.4913,-6.4953,-6.4969,-6.4782,-6.4781,-6.4781,-6.4781,0,-6.4289,-6.435,-6.44,-6.4461,-6.45,-6.4566,-6.4583,-6.4621,-6.462,-6.4636,-6.4717,-6.475,-6.4807,-6.483,-6.4827,-6.4927,-6.4912,-6.4889,-6.4844,-6.4933,-6.497,-6.4986,-6.4787,-6.4786,-6.4784,-6.4784,0,0,-6.4408,-6.4476,-6.4494,-6.4523,-6.4576,-6.4622,-6.4689,-6.4747,-6.4781,-6.4823,-6.4879,-6.4957,-6.4938,-6.4969,-6.4971,-6.5017,-6.5108,-6.4988,-6.4989,-6.501,-6.5222,-6.5239,-6.5256,-6.5099,-6.5102,-6.5105,-6.5218,0,-6.4511,-6.463,-6.464,-6.4747,-6.4804,-6.4794,-6.4852,-6.489,-6.4908,-6.4958,-6.4977,-6.5033,-6.5002,-6.5022,-6.5067,-6.5087,-6.5151,-6.5079,-6.5151,-6.5153,-6.514,-6.5276,-6.5293,-6.5399,-6.5233,-6.5236,-6.5237,0,-6.4646,-6.4697,-6.481,-6.4858,-6.4882,-6.4935,-6.4991,-6.5039,-6.5083,-6.5093,-6.5131,-6.5127,-6.5196,-6.515,-6.5245,-6.5197,-6.5227,-6.5242,-6.5246,-6.5252,-6.52,-6.5285,-6.5432,-6.5448,-6.5261,-6.5259,-6.5257,0,-6.4723,-6.4818,-6.49,-6.4925,-6.4982,-6.502,-6.5045,-6.5087,-6.5123,-6.5171,-6.5195,-6.525,-6.528,-6.5323,-6.5335,-6.53,-6.5431,-6.5385,-6.5441,-6.544,-6.5467,-6.5465,-6.5621,-6.5487,-6.5487,-6.5487,-6.5486,0,-6.4836,-6.4906,-6.4935,-6.4985,-6.5063,-6.5075,-6.5152,-6.5175,-6.5214,-6.5267,-6.5261,-6.5312,-6.5325,-6.5378,-6.5388,-6.5466,-6.5479,-6.5489,-6.549,-6.5489,-6.5488,-6.5508,-6.5501,-6.5491,-6.549,-6.5489,-6.5489,0,-6.4933,-6.4956,-6.5044,-6.5093,-6.5107,-6.5163,-6.5205,-6.5253,-6.5271,-6.534,-6.5357,-6.5385,-6.5448,-6.5465,-6.5538,-6.5545,-6.5638,-6.5632,-6.5623,-6.5623,-6.5678,-6.5673,-6.5851,-6.5876,-6.5727,-6.5728,-6.5729,0,-6.5004,-6.5058,-6.5115,-6.5152,-6.518,-6.5239,-6.5277,-6.5292,-6.5331,-6.5388,-6.5429,-6.5492,-6.5542,-6.5643,-6.567,-6.5727,-6.5723,-6.5782,-6.5731,-6.5729,-6.5724,-6.5721,-6.5727,-6.5791,-6.5792,-6.5794,-6.5795,0,-6.5127,-6.5137,-6.5192,-6.5253,-6.5299,-6.5347,-6.5393,-6.5423,-6.5445,-6.5489,-6.5555,-6.5595,-6.5673,-6.5735,-6.5794,-6.5819,-6.5811,-6.5811,-6.5827,-6.5826,-6.5819,-6.5824,-6.5649,-6.5806,-6.5805,-6.5804,-6.5804,-6.5803,-6.5213,-6.5262,-6.5311,-6.5374,-6.5411,-6.5455,-6.5504,-6.5531,-6.5586,-6.5652,-6.5658,-6.5729,-6.5775,-6.5854,-6.5883,-6.5939,-6.5921,-6.5944,-6.5949,-6.5955,-6.596,-6.5811,-6.5949,-6.5949,-6.5949,-6.5948,-6.5948,0,-6.5336,-6.5369,-6.5427,-6.5494,-6.5544,-6.5535,-6.5586,-6.5628,-6.5692,-6.5737,-6.5788,-6.5865,-6.5927,-6.596,-6.6021,-6.606,-6.6058,-6.6075,-6.6072,-6.6079,-6.5972,-6.5952,-6.6076,-6.6076,-6.6076,-6.6076,-6.6076,-6.6076,-6.5406,-6.549,-6.5506,-6.5608,-6.5639,-6.5711,-6.5742,-6.5783,-6.5819,-6.5906,-6.5958,-6.5981,-6.6021,-6.6086,-6.6143,-6.6151,-6.6174,-6.6194,-6.62,-6.6099,-6.6086,-6.6073,-6.6055,-6.6199,-6.6199,-6.6302,-6.6303,-6.6304]}]]